Location: Lane
(33.5226°N, 79.8788°W)
Time: 11:11:11
(UTC+00:00)

Altair - Pass Details

Date: 09 October 2022
Orbit: 1501 x 1682 km, 47.2° (Epoch: 30 November)

Event Time Altitude Azimuth Distance (km) Brightness Sun altitude
Rises 14:09:48 0° 305° (NW) 4,871 9.6 32.1°
Reaches altitude 10° 14:12:57 10° 308° (NW) 3,901 9.2 32.7°
Maximum altitude 14:23:00 70° 32° (NNE) 1,768 8.4 34.3°
Drops below altitude 10° 14:33:08 10° 115° (ESE) 3,934 10.9 36.0°
Sets 14:36:19 0° 118° (ESE) 4,913 11.1 36.5°
